ECMWFFLT1_850_spd_021.txt.gz
Wind_Speed
3 3 4 4 5 4 4 4 2 2 2 1 1 2 1 0 2 1 1 1 0 2 2 1 2 4 6 6 5 5 4 4 4 4 3 3 3 4 5 6 6 7 10 11 10 11 10 8 7 6 5 5 6 7 7 7 6 7 9 10 9 9 10
3 3 3 4 4 4 4 3 3 2 3 3 2 2 2 1 0 1 0 1 2 1 1 2 3 4 4 5 6 7 6 6 5 4 4 4 3 3 4 5 5 7 10 10 7 8 10 9 7 7 6 6 8 8 8 9 9 9 10 11 10 9 10
4 3 3 3 3 3 3 2 3 2 2 3 4 3 2 1 1 1 1 2 3 3 3 4 5 4 4 4 4 5 6 6 6 5 5 4 4 5 5 5 6 5 7 9 7 8 9 8 7 8 8 7 8 9 8 9 9 9 10 10 10 9 10
3 3 3 3 3 3 2 2 2 2 2 3 4 4 3 3 2 2 3 3 3 4 4 4 4 4 4 4 3 4 5 5 5 6 7 6 6 7 5 4 5 5 4 6 7 7 7 8 8 8 8 8 9 9 8 8 8 8 9 9 9 8 8
3 3 2 3 3 3 3 2 2 2 3 3 3 3 3 3 2 3 5 5 4 4 5 4 4 5 5 4 4 4 5 5 4 6 7 7 7 7 5 4 5 5 5 5 6 5 5 7 8 8 8 8 9 9 8 8 8 8 8 8 9 8 8
6 5 4 4 4 3 2 3 3 2 3 4 4 3 3 3 3 3 4 5 5 5 5 6 6 5 6 6 5 4 4 4 5 7 7 7 8 7 6 6 5 5 5 5 5 4 5 7 7 7 9 8 8 8 7 7 8 7 8 8 7 7 7
8 7 6 6 5 4 3 3 3 3 4 5 5 4 3 4 4 4 5 5 6 6 6 7 8 8 7 7 7 7 7 6 7 8 8 8 8 7 6 5 5 5 5 5 5 5 6 7 6 7 8 7 6 7 7 7 6 6 7 7 7 6 6
10 9 8 8 8 7 5 5 4 4 5 6 5 5 5 5 6 5 5 6 8 8 7 8 8 9 9 8 8 10 9 9 8 9 9 9 8 8 7 6 6 7 6 6 5 5 5 6 6 6 7 7 6 6 6 6 6 6 5 6 6 6 6
13 11 9 9 9 8 8 7 7 6 7 7 7 7 6 5 5 5 5 6 9 9 9 9 8 9 9 8 8 10 9 9 9 9 9 9 9 9 10 9 8 8 8 7 6 6 6 5 6 7 6 7 7 7 6 5 5 5 4 4 5 5 5
15 12 10 8 8 8 9 9 11 11 9 9 10 10 8 6 6 6 6 8 9 10 10 9 8 9 9 8 8 9 9 8 9 9 9 9 10 11 11 10 9 9 8 8 7 8 8 7 7 7 5 4 4 4 6 6 5 4 3 4 4 4 4
15 13 10 8 8 9 9 9 13 13 12 12 12 12 11 9 8 7 7 8 10 11 11 10 9 10 9 9 9 9 8 9 9 10 10 11 12 12 11 10 10 10 10 10 10 10 9 8 7 4 3 2 1 2 4 8 7 4 3 3 3 3 3
17 14 11 9 8 9 8 8 10 12 13 13 14 13 12 10 8 7 8 9 10 11 12 11 11 11 11 11 11 10 9 10 10 11 12 13 13 13 13 11 10 11 12 11 11 10 9 8 6 4 4 3 2 5 5 6 6 5 3 2 1 1 2
19 16 13 10 10 10 9 8 8 10 12 13 13 13 12 10 8 8 8 8 10 10 11 12 12 12 12 12 11 11 11 11 11 12 12 12 12 12 12 11 10 11 11 9 8 8 7 7 7 6 5 4 4 6 5 3 4 5 3 0 1 2 3
21 18 15 12 12 12 10 8 9 10 13 14 13 13 12 10 8 8 8 8 9 10 11 12 12 13 13 13 13 13 13 11 11 12 12 12 11 10 9 8 9 10 8 6 6 5 5 5 5 5 4 3 3 3 3 2 4 3 0 2 1 1 4
22 21 18 14 14 14 10 8 9 11 12 13 12 12 12 10 9 9 9 8 8 9 10 12 13 12 13 15 16 15 13 11 11 12 12 10 9 9 8 7 7 7 7 7 6 3 3 4 2 2 3 2 1 1 1 1 2 2 1 2 1 3 3
21 20 17 14 16 15 10 9 11 12 11 11 11 10 11 11 11 10 9 9 9 9 10 11 12 11 13 16 16 15 12 11 12 13 11 9 8 8 8 7 6 6 7 8 6 3 4 4 2 1 2 1 1 2 1 1 2 1 2 2 2 4 4
17 15 13 15 19 15 9 9 12 13 11 11 11 10 10 11 11 11 10 10 10 10 10 11 11 11 13 14 14 14 12 12 12 11 9 8 8 7 7 6 6 5 6 7 5 3 3 4 3 2 3 2 2 2 1 1 2 2 2 3 3 3 4
13 12 12 15 19 18 12 10 12 13 12 11 11 11 11 11 11 11 11 11 11 10 11 11 11 11 12 12 12 12 11 11 11 10 9 9 8 7 7 6 5 5 5 5 4 3 3 4 3 2 4 4 3 4 3 2 2 3 4 4 5 6 6
12 12 12 13 16 18 16 13 12 13 12 11 12 12 12 12 11 12 12 11 12 11 11 12 12 12 12 12 12 12 11 11 10 9 8 8 7 7 6 6 6 5 5 5 5 5 5 5 5 4 5 5 5 5 4 4 4 5 6 6 6 7 8
10 10 10 11 13 15 15 13 13 13 12 11 12 13 13 13 13 13 12 12 13 13 13 13 13 13 13 13 13 12 12 11 10 9 8 7 6 6 6 6 6 6 6 6 6 7 7 7 8 8 7 8 7 6 5 6 6 7 8 8 7 7 8
9 9 10 12 13 12 12 12 13 13 13 13 14 14 14 14 14 14 14 14 14 14 14 14 14 14 14 13 14 13 12 11 9 8 8 7 7 7 7 8 8 7 7 8 9 9 9 9 10 9 9 9 8 8 8 7 7 8 8 9 10 9 9
9 10 11 12 12 12 12 13 13 13 13 13 15 15 14 15 15 15 15 15 15 16 16 15 15 16 15 15 15 14 13 13 12 11 9 8 7 8 8 10 10 9 10 11 12 12 12 12 12 11 10 10 9 10 11 10 10 9 9 10 11 10 10
9 10 10 11 10 11 12 14 15 14 13 13 13 15 15 15 16 17 16 17 17 17 17 18 19 19 18 17 15 15 16 18 17 16 14 12 9 8 7 7 9 11 12 11 11 13 14 14 14 14 14 14 13 12 12 13 12 11 11 12 12 11 11
7 8 9 9 9 10 11 13 15 16 15 14 14 14 16 17 17 18 18 18 19 19 19 21 22 23 22 20 18 16 17 18 17 16 16 14 10 11 11 10 11 13 13 12 12 13 14 15 15 15 15 16 16 15 16 15 12 10 11 12 12 12 11
4 5 6 7 8 9 10 11 15 16 16 17 17 17 17 18 19 18 19 20 20 21 23 24 24 24 24 24 22 19 19 19 19 18 18 17 18 21 18 13 11 11 11 13 14 14 14 14 15 15 15 16 17 17 17 16 14 14 13 10 9 9 10
2 2 4 6 7 8 9 10 12 14 15 16 18 19 20 20 19 19 20 21 21 23 27 27 25 24 25 25 23 21 21 21 22 21 20 20 21 20 15 12 11 10 12 14 13 12 12 10 9 10 12 13 15 15 15 15 15 17 17 14 10 7 9
1 2 3 5 6 6 7 9 10 13 14 15 16 20 22 22 20 20 21 22 23 25 27 28 27 27 29 27 24 25 25 22 22 25 24 22 19 16 15 16 12 10 12 12 10 10 10 8 7 8 10 11 12 13 14 15 16 17 19 19 16 13 13
1 2 4 5 6 6 7 9 10 11 12 14 16 19 21 22 23 23 23 24 26 27 27 28 28 29 30 29 28 30 29 23 22 25 24 21 19 17 17 16 13 11 12 10 8 9 9 8 8 8 9 10 11 12 13 14 14 15 17 18 18 17 17
2 2 4 5 6 7 8 9 10 10 11 13 15 17 19 20 22 23 23 22 25 29 29 29 29 30 33 34 32 33 30 24 23 23 20 17 19 20 17 12 11 13 13 10 8 8 8 8 8 9 10 11 11 12 12 11 11 12 14 15 15 17 18
4 3 4 5 6 7 8 9 10 11 12 13 14 16 18 18 20 22 22 21 23 26 27 27 28 29 31 32 33 34 32 27 24 21 20 20 22 22 17 11 11 13 12 9 8 8 8 8 7 8 9 10 11 11 11 10 11 11 12 13 15 17 19
5 5 5 6 7 7 8 9 10 11 13 14 15 16 17 18 19 21 22 22 23 23 24 26 27 27 25 24 26 29 29 27 24 21 19 20 22 20 16 13 14 14 11 9 8 7 8 9 8 7 8 8 8 9 9 10 11 12 14 16 18 20 22
8 8 7 7 8 8 9 10 11 12 13 14 15 16 17 18 19 20 21 23 24 23 23 26 27 26 25 23 22 22 23 24 24 21 19 19 19 16 15 17 16 13 10 9 8 8 8 9 9 8 7 6 5 7 10 10 10 13 15 17 18 20 21
12 14 15 15 14 13 13 12 12 13 14 14 15 16 17 17 19 20 21 23 25 25 24 26 27 25 23 22 22 23 24 26 27 24 21 19 18 17 18 18 15 12 10 9 8 8 8 8 9 9 8 8 8 10 13 14 13 13 15 16 17 18 18
17 20 22 22 22 21 21 18 16 15 16 16 17 17 17 17 18 20 20 20 23 25 25 26 27 25 23 21 23 25 27 29 30 26 20 17 16 18 19 17 13 11 10 9 8 7 7 8 9 9 9 11 13 14 16 16 15 15 15 14 14 13 12
23 24 25 25 25 26 25 24 22 19 18 18 19 18 19 19 18 19 18 19 21 23 22 23 25 25 24 23 25 29 31 28 23 19 18 17 16 17 17 15 12 11 10 9 8 7 7 8 9 9 10 11 14 15 15 14 12 11 10 9 9 9 10
26 26 27 27 27 27 26 25 23 21 20 20 20 21 22 21 20 19 18 18 20 20 20 21 23 24 26 27 28 30 29 23 18 19 19 18 17 17 15 12 11 11 9 8 7 6 7 7 8 8 10 11 11 12 12 12 11 9 8 8 9 10 10
23 22 23 23 24 25 26 25 24 22 21 21 21 22 23 22 22 22 20 20 21 20 20 23 23 22 26 30 30 26 20 18 21 21 17 16 18 17 14 10 9 10 8 7 7 6 6 7 7 8 9 9 9 9 9 8 7 7 7 8 9 9 8

ECMWFFLT1_850_spd_024.txt.gz
Wind_Speed
10 11 11 11 8 7 9 7 6 7 6 5 6 6 6 5 5 6 4 4 5 4 4 4 3 2 3 3 4 4 4 5 8 8 8 9 10 9 10 10 7 6 9 12 12 14 13 11 9 7 9 9 9 11 10 10 15 15 11 10 8 8 8
10 11 10 9 7 7 8 9 7 5 4 5 5 6 6 5 6 6 4 5 8 3 0 2 3 2 4 5 5 6 5 5 7 8 8 8 7 7 9 10 8 8 11 12 12 13 13 13 10 7 8 9 10 11 12 13 16 16 15 12 8 5 5
12 11 8 6 7 6 6 7 7 4 4 5 5 7 6 3 4 6 3 3 9 9 7 7 7 5 6 6 5 6 7 6 6 7 8 8 7 7 8 10 10 11 12 12 12 14 13 13 11 9 11 12 14 15 13 13 13 13 13 13 9 4 2
12 10 7 6 7 7 6 7 6 4 3 3 4 6 5 2 2 6 5 3 5 7 6 7 6 5 6 7 5 6 6 5 5 7 8 8 8 8 9 10 10 11 12 12 13 14 13 11 11 12 12 12 13 14 12 11 11 12 10 9 6 1 3
9 8 7 8 8 6 6 6 5 4 2 1 4 4 4 3 3 7 8 5 5 6 4 4 5 6 6 7 6 6 6 6 7 9 11 10 9 10 10 9 10 10 9 9 10 12 13 12 13 15 14 13 14 13 13 13 12 11 10 9 8 6 6
6 7 8 9 8 6 5 5 5 4 3 3 4 2 3 5 5 7 7 4 5 6 6 6 6 6 7 8 8 7 7 8 9 9 11 11 11 12 11 9 10 11 9 7 6 9 13 12 12 17 16 13 13 14 14 13 12 10 9 7 6 4 4
6 8 8 9 9 6 5 6 5 5 4 4 4 3 5 6 5 6 6 5 5 6 9 10 9 7 8 9 10 9 10 10 10 10 12 14 12 9 9 10 13 12 11 11 9 10 13 10 10 17 17 12 12 15 15 13 11 10 10 6 2 2 1
8 9 10 10 10 7 5 7 6 6 6 6 6 6 7 8 7 6 6 7 7 7 10 11 10 9 9 12 14 13 13 12 12 13 15 15 13 10 9 9 11 12 11 11 9 10 10 7 9 14 12 9 12 15 15 13 10 8 8 6 3 4 5
9 11 11 9 8 7 6 7 7 6 7 8 7 6 6 7 6 6 6 8 9 9 10 10 10 9 9 13 14 13 13 12 12 14 14 14 14 13 11 10 11 13 11 9 9 11 9 8 13 12 8 8 10 13 15 13 11 9 6 4 3 4 7
10 12 11 8 7 7 7 8 7 5 7 8 6 6 6 6 6 7 6 7 10 10 9 9 10 10 10 12 13 13 13 11 10 11 11 12 14 14 13 12 12 13 12 11 13 14 12 12 14 10 6 7 6 7 13 14 12 10 7 5 4 4 8
12 12 11 8 7 6 6 6 5 5 8 7 5 5 6 6 6 6 5 7 10 11 9 9 9 9 9 11 11 10 10 9 9 10 12 15 16 14 12 12 11 11 12 13 13 14 14 13 13 6 5 6 5 2 10 17 13 8 8 7 5 5 6
13 13 11 8 6 4 4 4 4 6 6 5 4 5 6 5 5 4 4 6 9 11 10 10 9 9 9 9 9 9 9 8 9 11 14 16 15 13 12 12 11 11 12 13 13 14 14 11 8 3 2 5 9 9 8 15 14 10 8 5 4 4 3
13 13 10 8 6 4 3 4 4 4 4 2 3 5 6 5 5 4 4 4 6 8 9 9 9 8 8 8 9 9 9 9 10 13 14 14 14 13 14 15 14 12 11 12 13 13 12 11 8 4 2 3 8 11 8 7 9 9 5 1 3 3 3
13 12 10 8 7 5 4 5 5 5 4 3 3 6 7 6 5 4 3 3 4 6 8 8 9 9 9 9 10 10 11 11 13 14 14 14 13 12 13 16 15 12 10 11 11 7 7 9 6 5 5 3 3 7 7 3 2 2 2 2 2 1 2
12 12 11 10 8 6 6 7 6 5 3 4 6 7 7 6 5 4 4 4 4 5 6 7 9 9 9 11 12 13 12 12 14 15 15 14 12 10 11 12 12 12 11 11 8 5 5 4 3 5 6 3 1 5 4 1 1 1 2 2 3 1 2
11 12 13 12 10 8 8 8 6 5 5 5 7 7 8 7 7 6 6 5 4 5 5 7 9 8 10 13 15 14 11 12 14 15 14 12 12 11 10 9 8 8 10 10 9 8 8 4 1 3 7 5 1 3 4 3 3 1 2 2 4 1 2
12 14 14 13 10 9 11 10 7 5 5 5 6 8 8 8 9 8 8 6 5 5 6 8 8 8 10 14 15 13 12 14 15 15 12 10 9 9 7 6 5 6 8 9 7 7 8 6 3 1 3 2 3 3 3 3 3 2 1 0 2 1 3
13 15 14 12 11 10 12 10 6 6 7 7 9 10 9 9 10 10 9 7 6 6 7 8 8 8 10 13 14 12 12 13 13 12 10 8 7 7 6 4 3 4 6 7 6 5 3 5 5 3 1 1 3 4 2 2 2 1 1 2 1 3 5
13 13 12 11 11 12 11 8 6 8 9 9 10 11 10 10 10 10 10 9 8 8 8 9 9 8 10 11 12 11 11 12 12 11 11 9 8 7 6 5 3 2 3 4 5 6 5 6 6 6 6 5 1 0 2 4 3 1 4 4 4 5 6
11 10 11 11 12 12 11 9 9 10 10 10 10 11 11 10 10 10 10 10 10 9 9 9 10 11 11 11 11 11 11 13 13 12 12 10 8 7 7 6 6 5 5 5 4 6 7 7 7 7 9 11 7 4 2 5 5 4 4 5 5 6 7
8 7 8 10 10 10 11 11 10 11 11 10 10 11 11 11 12 11 11 11 11 12 11 11 12 14 13 13 13 14 14 14 13 12 12 10 9 11 10 10 11 10 10 9 7 8 9 8 8 8 9 11 12 11 7 5 8 7 6 8 7 6 8
9 7 7 9 9 9 9 10 11 12 11 11 11 11 11 11 12 13 13 12 12 13 14 14 14 15 15 15 15 16 15 15 14 13 14 14 14 15 13 13 14 12 11 10 9 10 12 11 11 11 11 10 11 12 11 11 12 9 8 10 8 7 10
9 9 9 10 10 10 8 8 10 11 11 12 13 12 12 12 12 13 14 14 15 16 16 17 17 17 16 16 16 17 16 16 16 16 17 17 18 17 15 14 13 12 11 9 9 11 13 14 15 14 13 13 13 12 12 13 14 12 10 9 8 9 10
7 7 8 8 8 8 9 9 11 12 12 12 12 13 14 14 14 14 14 15 16 17 18 19 18 18 19 19 19 19 19 19 20 20 19 19 19 18 18 16 14 12 11 10 11 13 14 16 17 16 15 15 16 15 14 14 15 14 12 10 10 11 11
4 5 5 5 5 6 8 9 11 13 14 14 14 15 15 16 17 17 17 17 16 17 19 20 20 21 22 22 23 23 22 22 23 22 21 21 20 20 19 18 16 14 14 15 17 17 18 18 19 18 17 17 17 17 16 16 16 15 15 14 13 12 13
2 2 3 4 4 7 9 9 10 12 14 15 17 18 18 18 18 20 21 21 19 19 19 19 21 24 25 25 27 27 26 25 24 24 24 24 23 22 21 20 19 18 18 20 19 19 20 20 20 19 18 17 17 17 16 16 16 17 16 17 16 15 16
3 3 1 3 5 6 8 9 11 13 15 16 17 18 20 21 21 21 22 23 24 25 24 22 23 25 26 27 29 30 29 28 26 25 26 27 26 25 24 23 22 22 21 20 18 20 21 20 18 16 14 13 13 13 14 14 15 15 16 17 18 19 20
6 5 4 3 4 5 6 8 9 11 13 14 15 17 19 19 20 21 23 24 26 28 28 26 27 28 29 29 30 31 31 30 29 28 27 27 27 27 26 26 24 23 20 17 17 19 19 19 16 13 11 11 11 11 11 11 12 13 14 15 17 20 22
7 5 4 3 4 5 6 8 8 8 9 11 13 15 17 17 17 19 21 24 26 29 29 28 28 30 31 31 31 32 34 34 32 29 25 25 26 25 26 26 22 19 18 17 17 18 18 17 15 13 12 12 12 11 11 11 12 12 13 13 14 17 19
3 2 2 2 3 4 5 6 7 8 9 10 12 13 15 17 17 18 20 23 25 28 29 29 29 30 31 32 33 34 35 36 35 32 27 26 25 24 25 25 20 19 21 21 19 17 18 17 14 12 13 13 12 11 12 12 13 12 13 13 13 14 16
6 7 6 6 6 7 7 6 6 7 9 12 14 15 16 17 18 19 20 22 23 25 28 29 30 30 31 33 34 34 35 37 39 37 34 32 29 26 27 26 24 24 24 22 19 17 18 16 13 12 14 13 12 11 12 13 13 13 14 14 15 15 16
12 13 14 14 13 12 11 11 10 9 10 11 14 15 16 18 20 20 21 22 23 24 26 28 28 28 29 31 32 33 35 38 40 38 36 35 32 30 30 27 26 25 21 17 17 18 17 15 14 13 13 12 10 9 10 11 13 14 13 13 14 15 16
15 17 18 20 20 19 18 19 18 17 16 15 15 16 16 18 20 21 22 22 22 23 25 26 26 25 27 28 30 33 35 36 35 34 33 33 32 31 31 28 27 26 21 17 17 18 16 16 16 15 14 12 10 10 11 12 13 13 12 13 15 15 15
19 21 22 23 24 24 24 24 24 23 22 21 20 19 19 20 22 22 23 23 24 25 26 25 24 23 25 28 31 33 34 33 31 30 29 30 31 32 32 32 31 27 22 19 19 18 17 18 18 17 15 14 14 14 15 14 13 13 14 15 13 11 9
21 22 23 24 25 26 26 26 26 26 26 26 25 24 23 24 24 23 23 24 25 25 24 24 24 23 23 26 30 32 31 30 31 31 30 30 31 30 29 29 27 22 19 18 19 19 18 18 19 18 16 15 16 16 15 14 14 15 15 12 8 6 6
25 24 23 22 22 23 24 24 26 27 27 27 28 27 26 26 26 26 27 28 28 27 25 26 27 26 25 24 27 30 30 29 30 32 31 32 31 24 20 20 19 17 18 19 18 18 17 17 18 18 17 15 16 16 16 15 15 14 12 9 7 7 7
23 24 25 24 24 24 23 22 23 24 25 25 27 28 27 27 27 28 28 30 31 30 28 28 28 28 27 25 25 28 29 29 32 32 31 32 27 19 16 18 18 18 20 20 18 17 16 15 16 16 15 15 14 14 14 14 11 9 8 7 6 5 5

ECMWFFLT1_850_spd_030.txt.gz
Wind_Speed
16 15 15 13 11 10 9 8 7 7 7 6 6 7 8 8 9 10 11 9 8 8 8 9 9 8 9 9 9 8 8 9 10 9 10 12 14 14 14 11 8 15 19 17 17 19 19 20 17 15 12 11 9 6 4 6 8 9 10 9 8 7 7
15 15 15 14 12 11 9 8 7 7 7 7 7 7 8 9 10 12 12 11 10 9 9 9 10 9 9 10 9 8 8 9 10 10 10 12 13 13 15 12 12 18 18 15 17 17 18 21 20 18 15 13 11 8 5 7 8 7 8 8 7 7 6
17 17 15 13 12 10 8 7 7 7 7 7 7 7 8 9 11 12 11 11 10 9 9 10 10 10 10 10 9 8 8 9 9 10 10 11 12 12 14 13 13 18 18 16 18 19 18 20 21 20 17 14 13 11 8 7 6 6 7 8 7 6 4
20 18 16 15 13 10 9 8 7 7 6 7 8 7 7 8 9 9 9 9 9 8 8 8 8 8 9 9 9 9 9 9 10 11 12 12 13 13 14 12 12 15 18 19 20 20 19 19 21 21 17 12 11 12 11 8 6 6 7 8 8 6 4
20 18 16 16 14 13 12 10 8 8 8 10 10 9 9 8 7 7 8 8 8 8 8 8 7 5 6 8 9 10 10 11 12 11 12 12 12 13 13 12 11 12 15 18 19 19 16 16 19 20 18 15 13 13 12 9 7 6 6 8 9 7 5
20 17 16 16 15 14 13 11 10 9 10 11 11 11 10 9 8 7 8 9 8 8 8 8 6 4 5 7 10 11 10 11 11 10 11 11 11 11 12 12 11 12 14 16 16 16 13 14 18 20 20 18 16 15 12 9 7 6 5 7 8 7 6
18 17 16 16 16 15 13 11 10 8 8 10 11 11 10 9 9 8 8 8 9 9 9 8 7 6 7 10 11 11 9 9 9 10 11 11 12 11 11 11 12 13 13 14 15 15 13 15 18 20 22 20 16 15 13 10 6 5 5 6 7 7 6
18 17 16 16 16 14 12 11 9 8 7 8 10 11 10 10 10 8 8 8 8 9 10 9 9 10 10 12 12 11 10 10 10 11 12 13 13 13 13 13 13 14 13 14 16 15 13 14 16 16 17 19 19 15 13 12 8 4 4 5 5 7 7
18 18 17 17 16 14 12 10 7 7 7 6 8 10 10 10 9 8 7 8 8 8 9 10 11 11 11 12 12 12 13 13 13 14 15 15 16 16 16 14 13 14 14 16 18 16 14 14 13 12 10 11 18 19 16 14 11 8 5 3 4 7 7
18 18 17 17 16 14 12 9 7 7 6 4 5 8 9 8 8 6 7 8 9 8 9 11 12 11 11 11 11 13 15 16 16 17 16 16 17 17 16 13 11 12 13 15 19 18 17 15 14 14 10 5 10 17 18 17 14 10 8 5 3 5 6
18 18 16 16 15 13 12 10 8 7 6 4 4 6 7 8 8 6 8 10 11 9 9 11 12 12 11 11 13 15 17 18 18 17 16 15 16 16 15 13 11 11 11 13 17 18 18 17 14 15 13 8 6 8 11 15 15 12 8 7 4 2 2
19 17 16 15 14 13 12 11 9 8 7 6 5 6 8 9 8 8 10 13 12 10 10 11 13 13 12 13 15 16 18 19 18 18 16 15 15 15 15 14 12 13 13 14 16 17 18 17 14 14 16 15 11 8 7 10 13 12 10 7 3 0 1
20 18 17 16 14 13 11 10 9 9 8 6 6 7 8 8 9 10 13 14 13 12 11 11 13 13 14 14 15 18 19 19 18 18 17 16 16 15 16 16 14 15 16 17 18 18 17 14 11 11 14 17 16 13 11 10 8 9 10 6 3 2 2
21 19 18 16 14 12 11 9 9 9 8 7 7 7 7 8 9 11 14 15 15 14 12 11 12 13 14 15 15 18 19 19 19 18 17 16 17 17 18 18 18 17 17 18 18 16 14 11 9 9 9 13 17 18 16 12 7 6 9 7 4 4 4
21 19 17 15 14 12 11 9 9 9 9 8 7 7 8 8 9 12 15 16 16 15 14 12 13 14 14 15 15 17 19 20 19 18 17 17 17 18 19 20 21 19 17 17 16 14 12 11 11 10 7 8 14 19 17 11 6 6 8 8 6 5 4
20 19 17 14 13 12 10 10 9 9 8 8 8 8 8 9 10 12 15 17 16 15 14 13 14 15 15 15 16 18 19 19 19 18 18 18 18 18 19 21 22 20 18 17 16 14 13 12 12 11 8 8 12 17 16 11 8 7 9 9 7 5 5
19 19 17 15 14 12 11 11 10 9 8 8 9 9 8 9 10 11 13 16 17 15 14 14 15 16 16 16 17 20 21 19 18 19 19 18 18 18 18 20 21 21 20 18 17 17 14 13 12 10 9 10 11 12 12 10 9 8 9 9 7 6 6
20 19 18 16 15 13 13 13 11 9 9 10 10 10 11 11 10 9 9 11 15 15 14 14 15 16 17 18 19 21 21 20 19 19 19 18 17 17 17 18 19 20 20 19 19 19 17 15 13 11 11 11 10 9 9 9 9 9 9 8 7 6 7
19 18 18 17 16 15 14 13 12 10 9 11 12 12 13 12 10 8 5 6 12 15 15 15 17 18 18 19 20 21 21 20 20 20 20 18 17 17 17 17 17 18 18 18 17 18 18 17 15 14 14 14 12 10 10 9 9 10 9 8 7 7 8
17 16 16 16 15 15 15 13 12 12 12 13 13 13 13 13 11 9 7 6 10 14 14 15 18 19 19 19 20 21 22 21 20 20 20 19 18 17 17 17 17 17 17 17 16 17 18 18 17 17 17 16 14 14 13 11 11 11 11 10 10 9 9
18 17 15 13 12 13 13 13 13 13 14 15 14 12 11 13 13 11 9 8 8 10 11 13 18 20 19 19 19 19 20 21 20 19 19 19 19 19 19 18 17 17 17 17 17 18 18 19 18 19 19 18 17 16 16 15 14 13 12 12 12 12 11
19 18 15 13 12 12 13 14 14 14 14 13 13 12 10 11 13 13 12 11 10 9 8 9 14 19 19 19 19 19 20 20 21 20 20 20 20 20 20 19 18 17 16 16 18 19 20 20 20 20 20 20 19 18 17 16 16 16 15 14 14 14 14
20 17 15 15 15 14 13 13 13 13 13 12 11 11 10 11 14 15 13 13 13 13 11 9 11 15 17 19 20 20 21 21 21 22 22 22 22 21 20 19 18 17 15 15 16 17 19 20 20 20 20 20 19 19 19 18 18 18 18 17 16 16 17
18 17 16 17 17 16 16 15 15 14 13 12 12 11 10 11 14 15 14 14 15 15 15 13 12 12 14 16 18 20 21 22 22 23 23 23 22 21 20 19 19 18 16 15 15 15 17 19 19 19 20 20 19 19 19 20 21 21 21 20 20 20 19
16 17 18 18 18 18 16 15 15 16 13 11 13 13 12 12 14 15 15 15 16 17 16 16 15 15 14 14 15 16 18 20 23 24 24 24 24 23 22 22 21 20 19 18 17 17 17 18 19 19 19 19 18 17 17 19 22 23 23 23 23 22 22
14 14 14 15 15 15 14 12 14 16 15 11 12 14 15 15 15 16 16 16 17 18 18 17 18 18 18 17 16 16 17 19 21 22 24 25 26 27 26 25 24 23 22 22 22 21 20 20 21 21 20 18 17 17 18 21 23 25 25 24 24 24 23
15 13 11 10 10 8 8 8 9 13 15 15 15 16 18 19 18 18 18 18 18 19 19 19 19 20 21 21 21 21 21 21 22 22 23 24 25 27 28 28 27 26 25 25 25 24 23 23 23 23 22 20 19 18 20 23 25 26 26 26 25 24 23
14 13 11 10 9 9 8 7 7 8 11 14 17 17 18 19 20 21 21 21 21 21 21 21 21 21 21 22 25 26 25 25 25 25 25 25 25 25 26 27 28 28 28 28 27 27 27 26 26 26 25 23 22 21 22 24 26 26 26 26 25 23 22
13 12 11 10 9 10 10 10 10 10 10 11 13 14 14 14 15 16 17 19 22 24 24 24 24 24 23 23 25 27 28 29 29 29 29 28 28 27 27 27 28 28 29 30 30 30 30 30 29 29 28 26 26 25 24 25 27 26 25 24 24 23 22
12 10 10 9 8 9 10 10 11 11 11 11 11 12 12 11 10 9 8 9 12 16 18 19 21 23 25 26 26 26 27 28 30 31 32 31 31 31 30 30 30 30 30 31 32 33 33 32 32 31 30 29 29 28 27 27 28 26 23 22 22 22 21
8 5 6 7 8 8 9 9 10 10 10 10 11 11 12 12 11 10 9 8 9 10 12 12 14 17 20 23 25 26 25 26 28 30 32 33 33 33 34 34 33 33 33 33 34 34 34 33 32 31 32 31 30 30 30 29 28 24 22 21 20 19 18
8 7 8 8 9 10 10 10 11 11 11 11 11 12 12 13 12 12 11 11 12 13 14 14 13 14 15 17 20 22 24 26 27 28 30 32 34 35 37 38 37 36 37 37 37 35 34 33 32 31 32 31 31 32 30 26 23 22 20 19 18 17 16
8 10 10 11 12 12 14 14 15 16 16 16 17 16 17 17 17 16 16 16 16 16 17 17 17 16 16 16 17 20 22 25 27 28 29 31 33 35 38 39 38 37 37 37 36 34 33 32 32 31 30 31 33 31 24 19 18 18 18 17 16 15 15
9 10 12 13 13 14 15 16 18 19 19 20 21 21 22 22 22 21 21 21 21 21 21 21 21 21 20 20 19 20 23 25 26 27 28 30 32 35 37 38 38 37 38 38 37 36 35 34 34 33 33 34 34 26 18 16 18 19 17 16 15 14 13
12 13 14 15 15 16 16 17 18 19 20 21 22 23 24 25 26 26 26 25 25 25 25 25 25 25 25 25 25 24 25 25 25 27 29 30 32 33 35 37 38 38 39 39 39 38 36 34 35 35 33 32 29 21 15 17 19 18 17 16 15 13 10
15 16 16 17 17 18 19 19 20 20 21 22 23 24 25 26 27 29 29 29 29 29 28 28 27 26 27 28 28 28 28 27 25 27 30 31 32 32 32 33 35 36 36 37 36 36 35 33 33 33 31 30 26 20 18 20 19 17 16 15 12 10 8
17 18 18 19 19 20 20 21 21 21 21 22 22 23 24 25 26 27 28 29 30 30 30 30 29 28 28 28 28 29 30 29 26 27 30 33 33 33 33 33 33 33 34 35 35 35 33 31 31 31 32 32 28 24 23 20 18 17 16 13 11 10 12

ECMWFFLT1_850_spd_033.txt.gz
Wind_Speed
16 13 12 10 9 8 8 8 8 9 9 9 8 8 7 7 7 7 8 8 8 9 9 8 9 9 10 11 11 11 11 11 10 10 11 11 12 14 13 11 7 6 14 17 14 14 16 17 13 10 10 8 7 8 9 10 10 10 8 7 6 6 6
14 13 13 12 11 9 8 8 8 9 9 10 10 9 8 8 7 7 7 8 8 9 10 9 9 9 10 11 11 11 10 11 11 11 11 10 11 13 13 12 8 9 15 16 12 12 14 17 16 14 13 11 9 9 9 9 9 8 7 6 4 4 5
17 16 15 13 10 8 7 6 7 8 9 10 10 10 10 9 8 8 8 8 9 9 9 9 10 9 10 10 9 9 9 10 11 12 12 10 11 13 13 12 10 12 16 15 13 13 13 15 16 17 15 12 11 11 9 8 8 8 8 8 6 5 4
20 17 13 11 10 7 5 5 5 7 8 8 7 8 8 8 9 9 9 8 9 8 7 8 9 9 9 9 9 8 9 10 11 12 12 12 12 13 13 12 10 10 12 12 12 14 13 13 17 19 16 12 11 11 10 8 7 8 9 9 8 7 6
17 13 10 9 9 7 5 4 4 5 5 4 4 5 6 6 7 8 9 8 8 7 6 6 8 8 7 8 8 8 9 10 10 11 12 13 14 14 14 14 11 10 11 9 10 13 12 10 14 19 17 14 13 12 11 8 7 7 8 8 7 8 7
12 9 8 8 7 5 3 2 2 1 1 1 2 2 3 3 2 4 6 7 8 6 6 7 7 6 6 7 8 9 9 9 9 9 10 11 13 13 14 15 13 12 13 12 11 13 12 10 13 17 17 15 13 13 12 9 7 7 7 7 7 7 7
11 9 8 6 6 5 3 2 1 2 3 3 3 2 1 1 2 2 2 5 6 5 6 7 6 5 6 8 10 10 9 9 9 9 9 10 11 12 13 14 14 13 14 14 13 13 13 13 13 15 17 17 13 12 12 10 7 7 7 7 6 6 5
11 10 8 7 7 6 4 2 1 2 4 4 5 5 5 5 5 3 2 3 5 5 6 7 6 5 7 9 10 10 9 10 10 10 11 11 11 12 13 14 15 14 15 15 15 14 14 13 13 14 14 17 17 13 11 10 7 6 6 6 6 5 4
11 10 9 9 9 7 5 3 1 2 3 4 6 7 7 7 5 4 3 3 4 5 7 7 6 6 7 8 10 9 9 11 12 12 12 12 12 13 14 15 16 16 16 16 16 15 14 12 12 12 9 10 15 16 13 11 8 7 6 5 5 5 4
11 10 8 9 10 8 5 3 2 3 3 3 5 6 6 6 5 4 4 3 4 4 6 7 7 7 8 8 9 10 10 11 12 13 12 13 13 14 15 16 16 16 16 16 17 16 13 13 13 12 5 3 9 13 14 12 10 9 8 6 6 5 3
10 10 9 10 11 9 6 4 4 4 4 4 4 4 5 5 5 4 3 3 4 4 5 6 8 9 9 9 9 10 11 11 12 12 12 13 14 14 14 14 13 14 15 16 17 16 14 13 14 11 6 3 5 5 7 9 10 10 9 7 7 5 3
12 11 11 12 12 9 7 6 5 4 4 4 4 3 4 4 4 4 4 4 5 4 5 6 8 9 9 9 10 11 11 11 11 12 13 13 14 13 12 12 12 12 13 14 16 16 15 14 14 12 9 6 6 4 1 4 7 8 9 8 6 4 3
15 14 13 13 12 10 8 8 6 5 4 4 4 3 4 4 4 5 5 6 6 5 5 7 8 8 9 9 9 10 12 12 12 12 13 13 13 12 11 11 11 11 12 13 15 15 16 17 15 14 12 10 9 8 6 4 3 4 8 9 6 4 4
17 16 15 14 13 11 10 9 7 5 5 5 4 3 3 4 4 5 5 7 7 6 5 7 7 8 8 9 9 10 11 12 13 12 13 13 12 12 11 10 10 11 12 13 15 15 16 18 17 15 14 14 13 12 10 9 6 4 7 10 8 6 6
17 16 16 15 14 13 11 10 8 6 6 6 5 5 5 5 5 6 6 8 8 7 5 6 7 8 8 9 10 11 12 13 13 13 13 13 13 13 12 12 11 11 12 13 14 16 17 18 17 15 15 15 15 14 13 12 10 7 7 9 9 8 8
16 16 15 14 13 12 11 10 9 7 7 7 6 7 7 6 6 7 8 9 9 8 7 6 7 7 8 9 10 12 13 14 14 13 14 14 14 14 14 14 13 12 13 13 14 16 17 16 15 13 13 13 13 15 16 15 13 9 8 9 9 8 8
17 16 15 14 13 12 11 11 9 7 7 8 8 8 7 7 7 8 9 11 10 10 9 8 7 8 8 9 9 10 12 14 14 14 14 15 15 17 17 16 15 14 14 14 14 15 15 14 13 12 11 11 11 14 16 17 15 12 9 10 10 8 8
18 17 16 15 14 13 12 12 10 8 8 8 8 8 8 8 8 9 10 11 11 11 9 8 8 9 10 10 10 10 12 14 14 14 14 15 15 16 18 18 17 16 16 15 14 14 13 13 13 12 12 12 11 12 15 16 16 14 11 11 10 9 9
18 18 18 17 15 14 13 12 10 9 9 9 9 8 8 8 7 7 7 9 11 11 10 9 10 10 11 12 11 12 13 14 13 13 14 14 13 14 16 18 19 19 18 17 16 16 15 15 14 13 12 12 12 12 14 16 16 14 12 11 11 10 10
22 21 20 18 17 16 15 13 11 10 10 9 9 9 9 8 7 5 4 5 8 11 11 10 10 11 12 13 13 14 15 15 14 14 14 14 14 13 14 16 18 19 19 19 18 18 17 16 16 15 13 12 12 13 15 15 15 14 13 13 12 12 11
25 24 21 19 19 19 17 15 13 12 11 10 9 9 9 9 7 5 4 3 4 8 10 10 11 12 13 14 14 15 16 16 15 15 16 16 15 14 14 15 16 17 17 17 17 16 16 16 17 16 15 14 14 14 15 15 15 15 15 15 15 15 14
26 24 22 21 21 20 18 15 13 12 11 10 10 9 9 9 9 7 6 5 4 5 7 9 11 13 14 14 15 16 16 16 16 16 16 17 17 16 15 16 16 16 16 16 16 16 16 17 17 17 16 16 17 17 17 17 17 17 16 17 17 17 17
27 26 23 21 20 19 18 16 14 13 12 11 11 10 9 9 9 9 8 7 6 6 6 6 8 11 14 15 15 16 17 17 17 17 18 18 18 18 18 18 17 18 18 18 18 18 18 19 19 18 18 17 18 19 19 19 19 18 18 18 18 18 19
27 24 21 19 18 18 18 16 15 14 13 13 12 11 10 8 9 9 10 9 8 8 7 5 5 7 11 13 15 17 18 18 19 19 19 20 20 20 20 20 20 20 20 21 21 20 20 21 21 21 21 20 19 19 19 18 18 19 19 20 20 21 22
24 21 19 19 19 19 18 18 18 17 15 14 14 13 11 10 9 10 10 10 10 10 10 9 8 7 8 10 12 15 17 18 20 21 21 21 22 22 22 22 23 23 22 22 22 22 22 21 22 22 22 22 21 20 20 20 20 20 20 21 21 23 24
24 22 22 21 20 20 20 20 20 19 18 16 16 16 15 13 12 12 12 12 13 13 12 12 12 12 12 12 12 13 15 16 19 21 22 23 24 25 25 25 25 25 24 23 23 23 23 22 22 21 21 22 23 23 23 23 22 21 20 21 22 23 24
22 23 23 21 19 20 22 21 21 20 19 18 18 18 18 17 15 15 15 15 15 15 15 15 15 16 17 18 18 18 18 18 19 19 20 22 23 24 25 26 26 26 26 26 26 25 25 24 24 23 23 23 24 25 26 25 24 23 22 22 23 24 24
21 22 21 19 18 18 20 20 20 20 19 19 19 20 20 21 20 19 18 18 18 18 17 17 17 17 18 19 22 23 24 24 24 23 22 22 23 23 24 24 25 26 26 27 28 28 28 28 27 27 26 27 27 27 27 27 27 25 24 23 23 24 24
19 19 17 16 15 15 16 16 17 17 18 19 20 20 21 22 22 22 21 21 22 21 19 18 17 18 18 18 20 23 25 28 29 29 29 28 27 27 26 26 27 27 27 28 28 28 29 30 30 30 31 32 32 30 29 30 30 29 27 26 26 26 26
16 16 15 15 15 15 15 15 15 15 15 17 18 19 20 20 21 22 22 23 25 25 23 22 22 21 21 21 21 21 22 24 27 31 33 33 33 33 32 32 31 31 31 31 30 30 31 33 33 34 34 35 34 33 32 32 32 32 31 31 31 30 27
11 12 12 13 13 12 12 12 13 13 13 13 14 14 15 16 18 18 19 20 23 24 25 25 26 26 26 26 26 26 24 23 23 26 29 32 35 36 37 37 36 36 36 34 34 34 36 38 39 39 38 38 37 35 35 34 32 32 33 32 31 28 26
2 2 4 6 7 7 8 9 9 10 11 12 12 12 13 13 14 15 16 17 20 21 22 22 23 24 25 25 26 28 28 28 27 27 26 27 29 32 34 36 37 38 39 39 39 39 40 43 44 41 37 38 37 37 36 35 33 33 33 31 29 27 26
4 4 4 5 7 8 9 8 8 9 11 12 12 13 14 14 15 16 16 17 19 21 22 22 22 22 23 23 24 25 26 27 28 29 28 26 25 26 27 29 31 33 36 38 39 40 43 45 44 37 33 35 37 36 35 33 32 32 31 29 27 25 25
7 8 8 9 9 11 12 12 13 13 13 14 15 16 17 18 18 19 20 20 21 22 24 25 24 24 24 23 24 25 26 26 26 27 28 28 27 26 25 24 25 26 29 32 34 38 41 44 44 41 38 37 35 32 30 29 29 29 29 27 26 25 24
11 12 12 13 13 14 14 14 15 16 16 17 18 19 20 21 22 22 23 24 24 25 26 27 27 27 27 27 26 27 27 28 28 28 29 30 30 29 27 25 24 23 24 25 27 31 35 38 42 43 39 33 30 29 29 28 28 27 28 27 24 23 24
14 15 15 15 16 17 17 17 17 18 18 19 19 20 21 22 23 24 24 25 26 26 27 27 28 28 29 30 30 30 30 30 30 31 32 33 33 32 31 30 28 24 23 23 25 27 29 32 38 40 37 33 30 29 29 28 26 26 27 27 24 24 24
16 16 17 17 17 18 18 18 18 19 19 20 20 21 21 22 23 24 25 25 25 26 27 27 27 27 28 29 31 32 33 33 33 33 35 36 36 35 34 33 32 29 26 25 26 28 29 30 33 35 34 32 31 29 28 28 27 27 27 28 27 25 24

ECMWFFLT1_850_spd_036.txt.gz
Wind_Speed
16 15 14 13 12 11 11 10 10 10 9 9 8 7 7 8 8 7 7 8 8 9 11 11 11 11 13 14 12 13 13 11 9 8 9 11 11 10 11 11 7 4 9 13 11 11 13 15 13 11 12 13 12 12 12 12 11 10 9 9 9 8 8
16 14 13 14 14 12 11 11 11 10 9 9 8 7 7 7 8 7 7 7 7 8 10 11 11 12 14 14 13 13 13 12 11 10 9 10 10 9 10 12 9 6 10 14 13 11 12 15 15 14 14 14 12 12 11 10 10 9 8 8 8 7 7
17 15 15 15 14 13 12 11 11 11 10 9 8 8 8 7 7 7 7 7 8 9 10 10 11 12 13 13 13 12 12 12 11 11 11 11 9 9 10 11 10 8 11 15 16 13 12 11 13 16 15 13 12 12 11 10 10 10 9 9 8 7 7
17 16 15 15 13 12 12 11 11 11 11 10 9 8 7 7 7 7 7 7 8 8 8 9 10 10 11 12 13 12 11 11 11 12 13 12 11 11 11 11 10 9 8 11 14 14 13 10 12 17 16 12 11 10 11 11 10 10 11 10 10 9 9
15 14 13 12 12 11 10 10 10 10 10 9 8 7 6 6 6 7 7 7 7 6 5 7 8 9 10 11 11 10 10 10 11 12 12 13 13 12 12 11 10 8 7 7 9 11 12 9 9 16 17 13 11 10 11 10 10 11 11 11 11 10 10
12 10 9 9 10 9 8 8 8 8 8 8 7 7 6 6 6 7 6 7 7 5 5 7 8 8 8 9 9 9 8 8 9 10 11 12 12 12 12 12 10 9 9 9 8 8 10 9 9 14 16 13 11 11 11 10 10 11 11 10 10 10 9
10 7 7 8 8 7 6 6 6 6 6 5 6 7 7 6 5 6 7 7 8 7 7 8 7 6 6 7 8 8 7 7 7 8 9 11 12 12 12 12 11 9 10 11 9 8 10 9 9 12 15 14 11 10 11 11 10 9 9 9 9 9 8
8 6 7 7 6 7 7 5 4 4 4 3 3 3 3 2 4 5 7 8 8 8 8 9 7 5 5 7 8 8 7 7 7 8 8 9 11 12 12 13 13 11 11 11 9 8 8 8 8 10 12 13 14 12 11 10 9 8 8 8 8 8 7
9 8 8 8 8 7 6 5 3 3 2 2 2 1 0 1 2 5 7 6 7 7 8 8 7 5 6 7 8 9 8 7 8 9 9 10 10 11 13 14 14 13 12 10 9 8 8 7 7 8 9 8 11 14 14 11 10 9 8 7 7 7 7
11 10 10 9 9 9 7 5 3 2 2 2 2 1 1 2 2 4 5 5 5 6 7 8 7 5 6 7 9 9 8 8 9 9 9 9 10 10 12 14 14 15 13 11 10 9 9 8 7 7 6 5 5 10 15 15 12 10 9 7 6 6 7
13 12 10 9 9 9 8 6 3 2 2 1 1 1 1 3 3 3 3 3 3 4 5 6 7 7 7 7 8 8 8 9 9 9 8 8 9 10 11 13 14 14 14 12 12 11 10 8 7 7 6 4 3 4 9 14 13 11 9 7 6 6 6
14 12 10 10 10 10 8 6 4 2 2 1 1 2 1 2 2 1 1 2 2 3 4 5 7 8 7 6 6 7 7 8 9 8 8 8 8 9 9 10 12 13 13 13 13 13 11 9 8 9 7 5 4 2 3 8 10 9 9 8 6 5 5
14 12 11 11 12 11 9 7 5 2 2 1 1 2 1 2 1 1 1 0 1 3 4 5 7 8 7 6 6 6 7 8 9 9 8 8 8 8 8 9 10 11 12 13 14 14 12 10 10 10 9 6 5 4 2 2 3 4 8 9 6 5 5
14 12 12 14 14 12 9 7 5 3 1 0 1 2 1 1 1 1 1 1 1 3 5 6 7 7 7 6 6 6 7 8 9 9 9 10 10 10 9 9 9 11 11 12 14 14 13 13 11 11 11 9 6 6 5 4 2 1 6 9 8 7 7
13 13 14 15 14 12 9 7 5 3 2 1 1 1 1 1 1 1 1 3 3 3 6 7 6 6 6 6 6 6 7 8 8 8 10 10 10 9 8 8 7 9 9 10 13 14 13 13 12 11 12 11 9 9 8 8 7 4 4 6 8 8 8
14 14 14 15 14 11 9 6 5 4 3 2 2 2 2 2 2 2 2 4 4 4 6 7 7 6 6 5 5 6 7 8 7 7 8 8 8 8 7 6 6 7 8 8 10 12 13 13 12 12 13 12 11 11 11 11 11 9 6 5 8 9 8
15 15 15 14 13 11 9 7 6 5 4 4 3 4 4 4 4 4 3 4 5 5 5 7 7 7 6 6 5 6 7 8 7 7 7 6 7 7 6 6 6 6 8 8 9 11 12 13 13 13 13 13 13 12 13 13 14 13 10 7 8 10 9
15 15 15 14 12 11 10 8 7 6 6 5 5 5 6 6 5 5 5 6 6 6 5 6 7 7 8 7 6 6 7 9 10 9 9 8 8 8 9 9 9 8 9 9 9 10 12 14 14 13 13 12 12 12 14 15 16 16 15 11 9 9 10
16 15 14 14 12 11 10 9 8 7 7 6 6 6 7 6 5 5 5 6 7 7 6 5 6 7 8 8 7 7 8 9 11 12 11 10 10 10 11 11 11 10 10 10 10 10 11 13 13 12 12 11 12 12 13 14 16 17 17 14 11 11 11
17 15 14 13 11 10 10 10 9 8 8 6 6 6 6 5 4 4 3 4 5 7 7 6 5 6 7 8 8 8 8 8 10 12 11 10 9 9 9 11 12 12 11 11 11 11 11 11 11 12 12 11 11 11 12 13 15 16 16 15 14 13 12
17 15 14 13 11 11 11 11 10 9 8 7 6 6 6 6 6 5 4 3 3 4 6 6 6 6 6 7 8 9 9 9 9 10 10 9 9 8 8 10 12 13 13 13 13 12 12 12 13 13 12 11 11 10 11 11 12 14 15 15 16 15 14
19 16 14 13 13 13 13 13 12 10 9 8 7 7 7 7 7 5 3 2 1 1 2 3 5 5 6 6 7 8 8 9 10 10 10 9 10 10 9 9 11 12 13 14 14 14 13 13 12 12 12 12 12 11 11 11 12 13 15 16 16 15 15
24 19 16 14 15 16 16 15 14 12 10 9 9 9 8 8 7 5 4 3 2 1 2 2 1 2 4 6 7 7 7 8 10 11 11 11 11 12 11 11 11 12 13 13 13 14 14 13 13 13 12 12 12 12 13 14 15 16 17 17 17 17 17
24 19 18 17 17 17 17 16 16 14 12 11 11 11 9 8 7 6 5 4 3 1 1 1 2 1 1 3 5 7 7 8 10 11 12 12 12 13 13 13 12 13 13 14 15 15 15 16 16 15 15 15 14 15 15 16 17 18 18 19 18 18 19
22 19 19 20 19 18 18 17 17 15 14 13 13 12 10 9 8 8 7 6 5 4 3 2 2 1 1 2 3 5 6 8 10 11 12 12 12 13 13 14 14 14 15 16 16 17 17 17 18 18 18 18 17 18 18 19 19 20 20 20 20 20 21
22 20 22 23 21 18 18 17 17 16 15 15 15 14 12 11 10 9 8 8 7 7 7 7 7 7 7 7 6 6 6 6 8 9 10 12 12 13 13 14 15 16 17 18 18 19 19 19 19 19 19 19 19 20 20 20 21 21 22 22 22 23 23
19 20 21 21 20 18 17 17 16 16 16 16 16 15 14 13 12 11 10 10 10 10 10 10 10 11 11 11 11 11 10 10 10 10 10 11 12 12 13 13 14 15 16 17 18 19 19 20 20 21 21 21 21 22 22 22 22 22 22 23 24 24 23
17 18 19 19 18 17 16 15 15 15 15 16 16 15 15 15 15 14 13 12 13 13 13 13 13 13 14 14 14 14 14 15 15 15 15 15 15 15 15 16 16 16 17 18 18 19 20 20 21 22 23 23 24 24 24 25 25 25 25 25 25 24 23
16 16 16 16 16 15 15 14 14 13 13 14 15 14 15 15 16 16 16 15 15 15 15 15 15 15 16 16 16 17 17 18 18 19 19 20 21 21 21 21 21 21 21 21 21 22 23 24 25 25 26 26 26 27 27 28 28 28 28 29 30 27 25
11 10 10 12 13 13 14 13 12 11 11 11 12 13 14 14 15 16 16 16 17 17 17 17 17 18 18 18 19 20 20 21 21 22 22 23 24 25 25 26 27 27 27 26 26 26 28 29 29 30 30 30 30 31 31 32 32 32 32 32 31 29 28
8 7 7 10 11 13 14 12 10 11 11 10 10 11 11 12 13 14 14 15 16 17 18 18 19 20 21 22 22 23 24 24 25 25 26 26 27 27 28 28 29 30 31 30 30 31 32 33 33 34 33 33 34 34 34 35 35 34 32 32 31 31 32
6 5 5 7 7 9 10 7 6 8 10 9 8 8 9 10 12 13 13 15 16 17 18 19 20 21 22 23 24 24 25 27 27 28 29 29 30 30 30 31 31 32 33 32 32 34 34 34 35 35 34 35 37 37 37 37 37 35 35 36 37 36 34
1 1 2 3 3 4 6 5 4 5 8 8 7 7 7 7 9 10 12 14 16 17 18 18 18 19 21 22 23 24 25 26 27 28 29 30 31 32 32 32 32 32 32 33 34 35 35 34 34 32 31 32 35 36 35 35 34 34 33 34 36 35 33
2 3 3 4 4 6 7 9 9 9 10 10 11 11 10 10 11 12 13 14 16 17 18 19 19 19 20 22 23 24 25 26 26 27 28 29 30 31 31 31 31 30 29 30 31 32 33 33 32 29 29 29 29 28 29 29 29 28 28 29 32 33 31
6 5 6 6 5 6 8 9 10 11 12 12 13 15 15 16 17 18 19 20 20 20 20 21 22 22 23 24 25 25 26 27 28 29 30 30 31 32 32 32 31 30 30 29 28 29 30 31 31 30 29 27 23 22 24 24 23 23 25 27 29 29 29
9 9 9 8 8 8 8 9 10 11 12 13 13 14 15 17 18 20 21 23 23 24 24 24 25 25 26 26 28 29 30 31 32 34 35 36 36 37 37 37 36 36 35 34 32 31 30 31 32 31 30 26 22 21 23 24 22 23 25 27 27 26 27
10 11 11 11 10 10 10 10 11 12 12 13 14 15 15 16 18 18 20 21 22 22 24 24 25 26 27 27 28 30 31 33 34 35 37 38 39 40 41 42 42 42 41 41 39 37 36 35 34 34 33 30 26 24 25 26 26 26 26 26 26 26 27